Time,TemperatureF,DewpointF,PressureIn,WindDirection,WindDirectionDegrees,WindSpeedMPH,WindSpeedGustMPH,Humidity,HourlyPrecipIn,Conditions,Clouds,dailyrainin,SoftwareType,DateUTC
2013-02-22 00:00:00,19.8,16.3,29.12,NE,45,6.9,6.9,86,0.00,CLR,SKC,0.00,WeatherDisplay:10.37,2013-02-22 05:00:00,
2013-02-22 00:01:00,19.8,16.3,29.12,NE,45,3.5,3.5,86,0.00,CLR,SKC,0.00,WeatherDisplay:10.37,2013-02-22 05:01:00,
2013-02-22 00:03:00,19.8,16.3,29.12,NE,45,3.5,3.5,86,0.00,CLR,SKC,0.00,WeatherDisplay:10.37,2013-02-22 05:03:00,
2013-02-22 00:05:00,19.8,16.3,29.13,NE,45,3.5,3.5,86,0.00,CLR,SKC,0.00,WeatherDisplay:10.37,2013-02-22 05:05:00,
2013-02-22 00:10:00,20.1,16.3,29.12,NE,45,7.6,7.6,85,0.00,CLR,SKC,0.00,WeatherDisplay:10.37,2013-02-22 05:10:00,
2013-02-22 00:15:00,20.1,16.3,29.12,NE,45,10.4,10.4,85,0.00,CLR,SKC,0.00,WeatherDisplay:10.37,2013-02-22 05:15:00,
2013-02-22 00:20:00,20.1,16.3,29.12,NE,45,6.9,6.9,85,0.00,CLR,SKC,0.00,WeatherDisplay:10.37,2013-02-22 05:20:00,
2013-02-22 00:25:00,20.1,16.3,29.12,NE,45,6.9,6.9,85,0.00,CLR,SKC,0.00,WeatherDisplay:10.37,2013-02-22 05:25:00,
2013-02-22 00:30:00,20.1,16.3,29.11,NE,45,10.4,10.4,85,0.00,CLR,SKC,0.00,WeatherDisplay:10.37,2013-02-22 05:30:00,
2013-02-22 00:35:00,20.1,16.3,29.11,NE,45,8.1,8.1,85,0.00,CLR,SKC,0.00,WeatherDisplay:10.37,2013-02-22 05:35:00,
2013-02-22 00:40:00,20.1,16.3,29.11,NE,45,9.2,9.2,85,0.00,CLR,SKC,0.00,WeatherDisplay:10.37,2013-02-22 05:40:00,
2013-02-22 00:45:00,20.3,16.5,29.11,NE,45,11.5,11.5,85,0.00,CLR,SKC,0.00,WeatherDisplay:10.37,2013-02-22 05:45:00,
2013-02-22 00:50:00,20.3,16.5,29.10,NE,45,10.4,10.4,85,0.00,CLR,SKC,0.00,WeatherDisplay:10.37,2013-02-22 05:50:00,
2013-02-22 00:55:00,20.5,16.7,29.10,NE,45,8.1,8.1,85,0.00,CLR,SKC,0.00,WeatherDisplay:10.37,2013-02-22 05:55:00,
2013-02-22 01:00:00,20.5,16.7,29.10,East,90,4.6,4.6,85,0.00,CLR,SKC,0.00,WeatherDisplay:10.37,2013-02-22 06:00:00,
2013-02-22 01:05:00,20.5,16.7,29.11,East,90,3.5,3.5,85,0.00,CLR,SKC,0.00,WeatherDisplay:10.37,2013-02-22 06:05:00,
2013-02-22 01:10:00,20.7,16.9,29.11,NE,45,8.1,8.1,85,0.00,CLR,SKC,0.00,WeatherDisplay:10.37,2013-02-22 06:10:00,
2013-02-22 01:15:00,20.8,16.8,29.11,NE,45,8.1,8.1,84,0.00,CLR,SKC,0.00,WeatherDisplay:10.37,2013-02-22 06:15:00,
2013-02-22 01:20:00,21.0,16.9,29.11,NE,45,6.9,6.9,84,0.00,CLR,SKC,0.00,WeatherDisplay:10.37,2013-02-22 06:20:00,
2013-02-22 01:25:00,21.0,16.9,29.10,NE,45,8.1,8.1,84,0.00,CLR,SKC,0.00,WeatherDisplay:10.37,2013-02-22 06:25:00,
2013-02-22 01:30:00,21.0,16.9,29.11,NE,45,3.5,3.5,84,0.00,CLR,SKC,0.00,WeatherDisplay:10.37,2013-02-22 06:30:00,
2013-02-22 01:35:00,21.2,17.1,29.12,NE,45,2.3,0.0,84,0.00,CLR,SKC,0.00,WeatherDisplay:10.37,2013-02-22 06:35:00,
2013-02-22 01:40:00,21.2,16.8,29.13,NW,315,2.3,2.3,83,0.00,CLR,SKC,0.00,WeatherDisplay:10.37,2013-02-22 06:40:00,
2013-02-22 01:45:00,21.2,16.8,29.13,NW,315,2.3,2.3,83,0.00,CLR,SKC,0.00,WeatherDisplay:10.37,2013-02-22 06:45:00,
2013-02-22 01:50:00,21.2,17.1,29.13,North,0,3.5,3.5,84,0.00,CLR,SKC,0.00,WeatherDisplay:10.37,2013-02-22 06:50:00,
2013-02-22 01:55:00,21.2,17.1,29.12,North,0,5.8,5.8,84,0.00,CLR,SKC,0.00,WeatherDisplay:10.37,2013-02-22 06:55:00,
2013-02-22 02:00:00,21.2,17.1,29.12,East,90,4.6,4.6,84,0.00,CLR,SKC,0.00,WeatherDisplay:10.37,2013-02-22 07:00:00,
2013-02-22 02:05:00,21.2,17.1,29.12,East,90,4.6,4.6,84,0.00,CLR,SKC,0.00,WeatherDisplay:10.37,2013-02-22 07:05:00,
2013-02-22 02:09:00,21.2,17.1,29.11,North,0,5.8,5.8,84,0.00,CLR,SKC,0.00,WeatherDisplay:10.37,2013-02-22 07:09:00,
2013-02-22 02:14:00,21.2,17.1,29.12,NNE,22,5.8,5.8,84,0.00,CLR,SKC,0.00,WeatherDisplay:10.37,2013-02-22 07:14:00,
2013-02-22 02:19:00,21.2,17.1,29.12,NE,45,3.5,3.5,84,0.00,CLR,SKC,0.00,WeatherDisplay:10.37,2013-02-22 07:19:00,
2013-02-22 02:24:00,21.2,17.1,29.12,WSW,248,5.8,5.8,84,0.00,CLR,SKC,0.00,WeatherDisplay:10.37,2013-02-22 07:24:00,
2013-02-22 02:29:00,21.2,17.1,29.13,North,0,3.5,0.0,84,0.00,CLR,SKC,0.00,WeatherDisplay:10.37,2013-02-22 07:29:00,
2013-02-22 02:34:00,21.2,17.1,29.13,NE,45,0.0,0.0,84,0.00,CLR,SKC,0.00,WeatherDisplay:10.37,2013-02-22 07:34:00,
2013-02-22 02:39:00,21.4,17.3,29.13,NE,45,3.5,3.5,84,0.00,CLR,SKC,0.00,WeatherDisplay:10.37,2013-02-22 07:39:00,
2013-02-22 02:44:00,21.4,17.3,29.12,NE,45,5.8,5.8,84,0.00,CLR,SKC,0.00,WeatherDisplay:10.37,2013-02-22 07:44:00,
2013-02-22 02:49:00,21.4,17.3,29.10,NE,45,8.1,8.1,84,0.00,CLR,SKC,0.00,WeatherDisplay:10.37,2013-02-22 07:49:00,
2013-02-22 02:54:00,21.4,17.3,29.09,NE,45,9.2,9.2,84,0.00,CLR,SKC,0.00,WeatherDisplay:10.37,2013-02-22 07:54:00,
2013-02-22 02:59:00,21.4,17.3,29.09,NE,45,8.1,8.1,84,0.00,CLR,SKC,0.00,WeatherDisplay:10.37,2013-02-22 07:59:00,
2013-02-22 03:04:00,21.4,17.3,29.10,NE,45,6.9,6.9,84,0.00,CLR,SKC,0.00,WeatherDisplay:10.37,2013-02-22 08:04:00,
2013-02-22 03:09:00,21.4,17.3,29.10,East,90,5.8,5.8,84,0.00,CLR,SKC,0.00,WeatherDisplay:10.37,2013-02-22 08:09:00,
2013-02-22 03:14:00,21.6,17.7,29.10,East,90,3.5,3.5,85,0.00,CLR,SKC,0.00,WeatherDisplay:10.37,2013-02-22 08:14:00,
2013-02-22 03:19:00,21.6,17.5,29.09,NE,45,8.1,8.1,84,0.00,CLR,SKC,0.00,WeatherDisplay:10.37,2013-02-22 08:19:00,
2013-02-22 03:24:00,21.7,17.7,29.08,NE,45,8.1,8.1,84,0.00,CLR,SKC,0.00,WeatherDisplay:10.37,2013-02-22 08:24:00,
2013-02-22 03:29:00,21.7,17.7,29.09,NE,45,8.1,8.1,84,0.00,CLR,SKC,0.00,WeatherDisplay:10.37,2013-02-22 08:29:00,
2013-02-22 03:34:00,21.9,17.8,29.08,NE,45,8.1,8.1,84,0.00,CLR,SKC,0.00,WeatherDisplay:10.37,2013-02-22 08:34:00,
2013-02-22 03:39:00,21.9,17.8,29.08,NE,45,5.8,5.8,84,0.00,CLR,SKC,0.00,WeatherDisplay:10.37,2013-02-22 08:39:00,
2013-02-22 03:44:00,21.9,17.8,29.08,NE,45,8.1,8.1,84,0.00,CLR,SKC,0.00,WeatherDisplay:10.37,2013-02-22 08:44:00,
2013-02-22 03:49:00,22.1,17.7,29.07,North,0,11.5,11.5,83,0.00,CLR,SKC,0.00,WeatherDisplay:10.37,2013-02-22 08:49:00,
2013-02-22 03:54:00,22.1,17.7,29.06,NE,45,9.2,9.2,83,0.00,CLR,SKC,0.00,WeatherDisplay:10.37,2013-02-22 08:54:00,
2013-02-22 03:59:00,22.1,17.7,29.06,NE,45,8.1,8.1,83,0.00,CLR,SKC,0.00,WeatherDisplay:10.37,2013-02-22 08:59:00,
2013-02-22 04:04:00,22.1,17.7,29.06,NE,45,6.9,6.9,83,0.00,CLR,SKC,0.00,WeatherDisplay:10.37,2013-02-22 09:04:00,
2013-02-22 04:09:00,22.1,17.7,29.06,East,90,10.4,10.4,83,0.00,CLR,SKC,0.00,WeatherDisplay:10.37,2013-02-22 09:09:00,
2013-02-22 04:14:00,22.3,17.9,29.06,NE,45,8.1,8.1,83,0.00,CLR,SKC,0.00,WeatherDisplay:10.37,2013-02-22 09:14:00,
2013-02-22 04:19:00,22.5,18.1,29.06,NE,45,5.8,5.8,83,0.00,CLR,SKC,0.00,WeatherDisplay:10.37,2013-02-22 09:19:00,
2013-02-22 04:24:00,22.6,18.3,29.05,NE,45,6.9,6.9,83,0.00,CLR,SKC,0.00,WeatherDisplay:10.37,2013-02-22 09:24:00,
2013-02-22 04:29:00,22.8,18.4,29.04,NE,45,12.7,12.7,83,0.00,CLR,SKC,0.00,WeatherDisplay:10.37,2013-02-22 09:29:00,
2013-02-22 04:34:00,23.0,18.6,29.04,North,0,11.5,11.5,83,0.00,CLR,SKC,0.00,WeatherDisplay:10.37,2013-02-22 09:34:00,
2013-02-22 04:39:00,23.0,18.6,29.04,NE,45,9.2,9.2,83,0.00,CLR,SKC,0.00,WeatherDisplay:10.37,2013-02-22 09:39:00,
2013-02-22 04:44:00,23.2,18.8,29.04,NE,45,8.1,8.1,83,0.00,CLR,SKC,0.00,WeatherDisplay:10.37,2013-02-22 09:44:00,
2013-02-22 04:49:00,23.2,18.8,29.04,East,90,10.4,10.4,83,0.00,CLR,SKC,0.00,WeatherDisplay:10.37,2013-02-22 09:49:00,
2013-02-22 04:54:00,23.4,18.7,29.04,NE,45,10.4,10.4,82,0.00,CLR,SKC,0.00,WeatherDisplay:10.37,2013-02-22 09:54:00,
2013-02-22 04:59:00,23.5,18.9,29.05,NE,45,8.1,8.1,82,0.00,CLR,SKC,0.00,WeatherDisplay:10.37,2013-02-22 09:59:00,
2013-02-22 05:04:00,23.5,18.9,29.05,NE,45,5.8,5.8,82,0.00,CLR,SKC,0.00,WeatherDisplay:10.37,2013-02-22 10:04:00,
2013-02-22 05:09:00,23.9,18.9,29.06,NE,45,8.1,8.1,81,0.00,CLR,SKC,0.00,WeatherDisplay:10.37,2013-02-22 10:09:00,
2013-02-22 05:14:00,23.9,18.9,29.05,NE,45,10.4,10.4,81,0.00,CLR,SKC,0.00,WeatherDisplay:10.37,2013-02-22 10:14:00,
2013-02-22 05:19:00,24.1,19.1,29.06,North,0,4.6,4.6,81,0.00,CLR,SKC,0.00,WeatherDisplay:10.37,2013-02-22 10:19:00,
2013-02-22 05:24:00,24.3,19.0,29.06,NE,45,10.4,10.4,80,0.00,CLR,SKC,0.00,WeatherDisplay:10.37,2013-02-22 10:24:00,
2013-02-22 05:29:00,24.4,19.2,29.06,NE,45,6.9,6.9,80,0.00,CLR,SKC,0.00,WeatherDisplay:10.37,2013-02-22 10:29:00,
2013-02-22 05:34:00,24.6,19.3,29.06,NE,45,9.2,9.2,80,0.00,CLR,SKC,0.00,WeatherDisplay:10.37,2013-02-22 10:34:00,
2013-02-22 05:40:00,24.6,19.3,29.06,NE,45,8.1,8.1,80,0.00,CLR,SKC,0.00,WeatherDisplay:10.37,2013-02-22 10:40:00,
2013-02-22 05:45:00,24.8,19.5,29.05,East,90,6.9,6.9,80,0.00,CLR,SKC,0.00,WeatherDisplay:10.37,2013-02-22 10:45:00,
2013-02-22 05:50:00,24.8,19.5,29.05,NE,45,5.8,5.8,80,0.00,CLR,SKC,0.00,WeatherDisplay:10.37,2013-02-22 10:50:00,
2013-02-22 05:55:00,25.0,19.7,29.04,NE,45,9.2,9.2,80,0.00,CLR,SKC,0.00,WeatherDisplay:10.37,2013-02-22 10:55:00,
2013-02-22 06:00:00,25.2,19.9,29.04,ENE,68,8.1,8.1,80,0.00,CLR,SKC,0.00,WeatherDisplay:10.37,2013-02-22 11:00:00,
2013-02-22 06:05:00,25.2,19.9,29.04,ENE,68,3.5,3.5,80,0.00,CLR,SKC,0.00,WeatherDisplay:10.37,2013-02-22 11:05:00,
2013-02-22 06:10:00,25.5,19.9,29.04,NE,45,8.1,8.1,79,0.00,CLR,SKC,0.00,WeatherDisplay:10.37,2013-02-22 11:10:00,
2013-02-22 06:15:00,25.7,20.1,29.04,East,90,5.8,5.8,79,0.00,CLR,SKC,0.00,WeatherDisplay:10.37,2013-02-22 11:15:00,
2013-02-22 06:20:00,25.9,20.3,29.03,NE,45,4.6,4.6,79,0.00,CLR,SKC,0.00,WeatherDisplay:10.37,2013-02-22 11:20:00,
2013-02-22 06:25:00,26.1,20.1,29.02,East,90,5.8,5.8,78,0.00,CLR,SKC,0.00,WeatherDisplay:10.37,2013-02-22 11:25:00,
2013-02-22 06:30:00,26.2,20.3,29.01,East,90,5.8,5.8,78,0.00,CLR,SKC,0.00,WeatherDisplay:10.37,2013-02-22 11:30:00,
2013-02-22 06:35:00,26.6,20.4,29.00,East,90,4.6,4.6,77,0.00,CLR,SKC,0.00,WeatherDisplay:10.37,2013-02-22 11:35:00,
2013-02-22 06:40:00,27.0,20.4,29.01,ENE,68,4.6,4.6,76,0.00,CLR,SKC,0.00,WeatherDisplay:10.37,2013-02-22 11:40:00,
2013-02-22 06:45:00,27.3,20.4,29.00,NE,45,5.8,5.8,75,0.00,CLR,SKC,0.00,WeatherDisplay:10.37,2013-02-22 11:45:00,
2013-02-22 06:50:00,27.7,20.5,29.00,East,90,4.6,4.6,74,0.00,CLR,SKC,0.00,WeatherDisplay:10.37,2013-02-22 11:50:00,
2013-02-22 06:55:00,28.0,20.2,29.00,East,90,4.6,4.6,72,0.00,CLR,SKC,0.00,WeatherDisplay:10.37,2013-02-22 11:55:00,
2013-02-22 07:00:00,28.4,20.2,29.00,East,90,3.5,3.8,71,0.00,CLR,SKC,0.00,WeatherDisplay:10.37,2013-02-22 12:00:00,
2013-02-22 07:05:00,28.4,20.2,29.00,East,90,5.8,5.8,71,0.00,CLR,SKC,0.00,WeatherDisplay:10.37,2013-02-22 12:05:00,
2013-02-22 07:10:00,29.1,20.2,28.99,East,90,4.6,4.6,69,0.00,CLR,SKC,0.00,WeatherDisplay:10.37,2013-02-22 12:10:00,
2013-02-22 07:15:00,29.3,20.4,28.99,East,90,4.6,4.6,69,0.00,CLR,SKC,0.00,WeatherDisplay:10.37,2013-02-22 12:15:00,
2013-02-22 07:20:00,29.7,20.0,28.98,East,90,5.8,5.8,67,0.00,CLR,SKC,0.00,WeatherDisplay:10.37,2013-02-22 12:20:00,
2013-02-22 07:25:00,29.8,20.2,28.98,ENE,68,8.1,8.1,67,0.00,CLR,SKC,0.00,WeatherDisplay:10.37,2013-02-22 12:25:00,
2013-02-22 07:30:00,30.2,20.6,28.98,NE,45,12.7,12.7,67,0.00,CLR,SKC,0.00,WeatherDisplay:10.37,2013-02-22 12:30:00,
2013-02-22 07:35:00,30.6,20.2,28.98,ENE,68,9.2,9.2,65,0.00,CLR,SKC,0.00,WeatherDisplay:10.37,2013-02-22 12:35:00,
2013-02-22 07:40:00,30.7,20.4,28.97,East,90,8.1,8.1,65,0.00,CLR,SKC,0.00,WeatherDisplay:10.37,2013-02-22 12:40:00,
2013-02-22 07:45:00,31.1,20.7,28.97,SE,135,8.1,8.1,65,0.00,CLR,SKC,0.00,WeatherDisplay:10.37,2013-02-22 12:45:00,
2013-02-22 07:50:00,31.3,20.9,28.97,SE,135,6.9,6.9,65,0.00,CLR,SKC,0.00,WeatherDisplay:10.37,2013-02-22 12:50:00,
2013-02-22 07:55:00,31.5,21.0,28.96,East,90,6.9,6.9,65,0.00,CLR,SKC,0.00,WeatherDisplay:10.37,2013-02-22 12:55:00,
2013-02-22 08:00:00,31.6,21.2,28.96,ENE,68,9.2,9.2,65,0.00,CLR,SKC,0.00,WeatherDisplay:10.37,2013-02-22 13:00:00,
2013-02-22 08:05:00,31.6,21.2,28.96,East,90,5.8,5.8,65,0.00,CLR,SKC,0.00,WeatherDisplay:10.37,2013-02-22 13:05:00,
2013-02-22 08:10:00,31.8,21.4,28.97,East,90,10.4,10.4,65,0.00,CLR,SKC,0.00,WeatherDisplay:10.37,2013-02-22 13:10:00,
2013-02-22 08:15:00,32.0,21.9,28.97,East,90,6.9,6.9,66,0.00,CLR,SKC,0.00,WeatherDisplay:10.37,2013-02-22 13:15:00,
2013-02-22 08:20:00,32.0,21.9,28.97,East,90,3.5,3.5,66,0.00,CLR,SKC,0.00,WeatherDisplay:10.37,2013-02-22 13:20:00,
2013-02-22 08:25:00,32.4,22.3,28.97,SE,135,9.2,9.2,66,0.00,CLR,SKC,0.00,WeatherDisplay:10.37,2013-02-22 13:25:00,
2013-02-22 08:30:00,32.4,22.3,28.97,East,90,9.2,9.2,66,0.00,CLR,SKC,0.00,WeatherDisplay:10.37,2013-02-22 13:30:00,
2013-02-22 08:35:00,32.5,22.8,28.97,NE,45,15.0,15.0,67,0.00,CLR,SKC,0.00,WeatherDisplay:10.37,2013-02-22 13:35:00,
2013-02-22 08:40:00,32.5,22.8,28.97,SE,135,10.4,10.4,67,0.00,CLR,SKC,0.00,WeatherDisplay:10.37,2013-02-22 13:40:00,
2013-02-22 08:45:00,32.7,23.0,28.97,East,90,9.2,9.2,67,0.00,CLR,SKC,0.00,WeatherDisplay:10.37,2013-02-22 13:45:00,
2013-02-22 08:50:00,32.7,23.0,28.97,SE,135,17.3,17.3,67,0.00,CLR,SKC,0.00,WeatherDisplay:10.37,2013-02-22 13:50:00,
2013-02-22 08:55:00,32.9,23.1,28.96,East,90,10.4,10.4,67,0.00,CLR,SKC,0.00,WeatherDisplay:10.37,2013-02-22 13:55:00,
2013-02-22 09:00:00,32.9,23.1,28.96,East,90,8.1,8.1,67,0.00,CLR,SKC,0.00,WeatherDisplay:10.37,2013-02-22 14:00:00,
2013-02-22 09:05:00,32.9,23.1,28.95,East,90,5.8,5.8,67,0.00,CLR,SKC,0.00,WeatherDisplay:10.37,2013-02-22 14:05:00,
2013-02-22 09:11:00,33.1,24.0,28.95,East,90,8.1,8.1,69,0.00,CLR,SKC,0.00,WeatherDisplay:10.37,2013-02-22 14:11:00,
2013-02-22 09:16:00,33.1,24.0,28.95,East,90,6.9,6.9,69,0.00,CLR,SKC,0.00,WeatherDisplay:10.37,2013-02-22 14:16:00,
2013-02-22 09:21:00,33.1,24.4,28.94,East,90,6.9,6.9,70,0.00,CLR,SKC,0.00,WeatherDisplay:10.37,2013-02-22 14:21:00,
2013-02-22 09:26:00,33.1,24.4,28.94,East,90,8.1,8.1,70,0.00,CLR,SKC,0.00,WeatherDisplay:10.37,2013-02-22 14:26:00,
2013-02-22 09:31:00,33.1,24.4,28.94,East,90,5.8,5.8,70,0.00,CLR,SKC,0.00,WeatherDisplay:10.37,2013-02-22 14:31:00,
2013-02-22 09:36:00,33.1,24.7,28.94,NNE,22,5.8,5.8,71,0.00,CLR,SKC,0.00,WeatherDisplay:10.37,2013-02-22 14:36:00,
2013-02-22 09:41:00,32.9,24.2,28.94,NE,45,8.1,8.1,70,0.00,CLR,SKC,0.00,WeatherDisplay:10.37,2013-02-22 14:41:00,
2013-02-22 09:46:00,32.7,24.3,28.94,East,90,17.3,17.3,71,0.00,CLR,SKC,0.00,WeatherDisplay:10.37,2013-02-22 14:46:00,
2013-02-22 09:51:00,32.5,24.5,28.94,East,90,5.8,5.8,72,0.00,CLR,SKC,0.00,WeatherDisplay:10.37,2013-02-22 14:51:00,
2013-02-22 09:56:00,32.5,24.8,28.94,East,90,6.9,6.9,73,0.00,CLR,SKC,0.00,WeatherDisplay:10.37,2013-02-22 14:56:00,
2013-02-22 10:01:00,32.5,24.8,28.94,SE,135,13.8,13.8,73,0.00,CLR,SKC,0.00,WeatherDisplay:10.37,2013-02-22 15:01:00,
2013-02-22 10:06:00,32.2,25.5,28.94,East,90,13.8,13.8,76,0.00,CLR,SKC,0.00,WeatherDisplay:10.37,2013-02-22 15:06:00,
2013-02-22 10:11:00,31.8,26.0,28.94,SE,135,6.9,6.9,79,0.00,CLR,SKC,0.00,WeatherDisplay:10.37,2013-02-22 15:11:00,
2013-02-22 10:16:00,31.6,26.5,28.94,East,90,17.3,17.3,81,0.00,CLR,SKC,0.00,WeatherDisplay:10.37,2013-02-22 15:16:00,
2013-02-22 10:21:00,31.3,27.0,28.94,East,90,4.6,4.6,84,0.00,CLR,SKC,0.00,WeatherDisplay:10.37,2013-02-22 15:21:00,
2013-02-22 10:26:00,31.1,27.4,28.94,East,90,9.2,9.2,86,0.00,CLR,SKC,0.00,WeatherDisplay:10.37,2013-02-22 15:26:00,
2013-02-22 10:31:00,30.9,27.8,28.94,East,90,5.8,5.8,88,0.00,CLR,SKC,0.00,WeatherDisplay:10.37,2013-02-22 15:31:00,
2013-02-22 10:36:00,30.7,27.9,28.94,East,90,7.6,7.6,89,0.00,CLR,SKC,0.00,WeatherDisplay:10.37,2013-02-22 15:36:00,
2013-02-22 10:41:00,30.7,28.2,28.94,East,90,8.1,8.1,90,0.00,CLR,SKC,0.00,WeatherDisplay:10.37,2013-02-22 15:41:00,
2013-02-22 10:46:00,30.9,28.6,28.94,East,90,8.1,8.1,91,0.00,CLR,SKC,0.00,WeatherDisplay:10.37,2013-02-22 15:46:00,
2013-02-22 10:51:00,30.9,28.9,28.94,East,90,10.4,10.4,92,0.00,CLR,SKC,0.00,WeatherDisplay:10.37,2013-02-22 15:51:00,
2013-02-22 10:56:00,30.9,29.1,28.94,East,90,8.1,8.1,93,0.00,CLR,SKC,0.00,WeatherDisplay:10.37,2013-02-22 15:56:00,
2013-02-22 11:01:00,30.7,29.2,28.94,East,90,5.8,5.8,94,0.00,CLR,SKC,0.00,WeatherDisplay:10.37,2013-02-22 16:01:00,
2013-02-22 11:06:00,30.7,29.2,28.94,East,90,4.6,4.6,94,0.00,CLR,SKC,0.00,WeatherDisplay:10.37,2013-02-22 16:06:00,
2013-02-22 11:11:00,30.7,29.5,28.94,SE,135,5.8,5.8,95,0.00,CLR,SKC,0.00,WeatherDisplay:10.37,2013-02-22 16:11:00,
2013-02-22 11:16:00,30.7,29.7,28.94,East,90,10.4,10.4,96,0.00,CLR,SKC,0.00,WeatherDisplay:10.37,2013-02-22 16:16:00,
2013-02-22 11:21:00,30.7,30.0,28.94,SE,135,8.1,8.1,97,0.00,CLR,SKC,0.00,WeatherDisplay:10.37,2013-02-22 16:21:00,
2013-02-22 11:26:00,30.6,30.1,28.93,East,90,8.1,8.1,98,0.00,CLR,SKC,0.00,WeatherDisplay:10.37,2013-02-22 16:26:00,
2013-02-22 11:31:00,30.6,30.3,28.93,East,90,8.1,8.1,99,0.00,,SKC,0.00,WeatherDisplay:10.37,2013-02-22 16:31:00,
2013-02-22 11:36:00,30.6,30.6,28.93,East,90,5.8,5.8,100,0.00,,SKC,0.00,WeatherDisplay:10.37,2013-02-22 16:36:00,
2013-02-22 11:41:00,30.6,30.6,28.93,East,90,4.6,4.6,100,0.00,,SKC,0.00,WeatherDisplay:10.37,2013-02-22 16:41:00,
2013-02-22 11:46:00,30.6,30.6,28.93,East,90,8.1,8.1,100,0.00,,SKC,0.00,WeatherDisplay:10.37,2013-02-22 16:46:00,
2013-02-22 11:51:00,30.6,30.6,28.94,East,90,4.6,4.6,100,0.00,,SKC,0.00,WeatherDisplay:10.37,2013-02-22 16:51:00,
2013-02-22 11:56:00,30.6,30.6,28.94,East,90,4.6,4.6,100,0.00,,SKC,0.00,WeatherDisplay:10.37,2013-02-22 16:56:00,
2013-02-22 12:01:00,30.6,30.6,28.93,East,90,5.8,5.8,100,0.00,,SKC,0.00,WeatherDisplay:10.37,2013-02-22 17:01:00,
2013-02-22 12:06:00,30.6,30.6,28.93,East,90,5.8,5.8,100,0.00,,SKC,0.00,WeatherDisplay:10.37,2013-02-22 17:06:00,
2013-02-22 12:11:00,30.7,30.7,28.93,NE,45,6.9,6.9,100,0.00,,SKC,0.00,WeatherDisplay:10.37,2013-02-22 17:11:00,
2013-02-22 12:16:00,30.9,30.9,28.92,East,90,6.9,6.9,100,0.00,,SKC,0.00,WeatherDisplay:10.37,2013-02-22 17:16:00,
2013-02-22 12:21:00,30.9,30.9,28.92,NE,45,3.5,3.5,100,0.00,,SKC,0.00,WeatherDisplay:10.37,2013-02-22 17:21:00,
2013-02-22 12:26:00,30.9,30.9,28.92,East,90,3.5,3.5,100,0.00,,SKC,0.00,WeatherDisplay:10.37,2013-02-22 17:26:00,
2013-02-22 12:31:00,31.1,31.1,28.92,East,90,5.8,5.8,100,0.00,,SKC,0.00,WeatherDisplay:10.37,2013-02-22 17:31:00,
2013-02-22 12:36:00,31.1,31.1,28.92,East,90,5.8,5.8,100,0.00,,SKC,0.00,WeatherDisplay:10.37,2013-02-22 17:36:00,
2013-02-22 12:41:00,31.3,31.3,28.92,East,90,3.5,3.5,100,0.00,,SKC,0.00,WeatherDisplay:10.37,2013-02-22 17:41:00,
2013-02-22 12:46:00,31.5,31.5,28.92,East,90,6.9,6.9,100,0.00,,SKC,0.00,WeatherDisplay:10.37,2013-02-22 17:46:00,
2013-02-22 12:51:00,31.5,31.5,28.92,East,90,4.6,4.6,100,0.00,,SKC,0.00,WeatherDisplay:10.37,2013-02-22 17:51:00,
2013-02-22 12:56:00,31.6,31.6,28.92,East,90,4.6,4.6,100,0.00,,SKC,0.00,WeatherDisplay:10.37,2013-02-22 17:56:00,
2013-02-22 13:01:00,31.8,31.8,28.92,East,90,3.5,3.5,100,0.00,,SKC,0.00,WeatherDisplay:10.37,2013-02-22 18:01:00,
2013-02-22 13:06:00,31.8,31.8,28.91,East,90,3.5,3.5,100,0.00,,SKC,0.00,WeatherDisplay:10.37,2013-02-22 18:06:00,
2013-02-22 13:11:00,32.0,32.0,28.91,East,90,3.5,3.5,100,0.00,,SKC,0.00,WeatherDisplay:10.37,2013-02-22 18:11:00,
2013-02-22 13:16:00,32.2,32.2,28.91,East,90,4.6,4.6,100,0.00,,SKC,0.00,WeatherDisplay:10.37,2013-02-22 18:16:00,
2013-02-22 13:21:00,32.2,32.2,28.91,East,90,2.3,2.3,100,0.00,,SKC,0.00,WeatherDisplay:10.37,2013-02-22 18:21:00,
2013-02-22 13:26:00,32.4,32.4,28.91,NE,45,3.5,3.5,100,0.00,,SKC,0.00,WeatherDisplay:10.37,2013-02-22 18:26:00,
2013-02-22 13:31:00,32.5,32.5,28.90,East,90,3.5,3.5,100,0.00,,SKC,0.00,WeatherDisplay:10.37,2013-02-22 18:31:00,
2013-02-22 13:36:00,32.5,32.5,28.90,SE,135,4.6,4.6,100,0.00,,SKC,0.00,WeatherDisplay:10.37,2013-02-22 18:36:00,
2013-02-22 13:41:00,32.7,32.7,28.90,East,90,8.1,8.1,100,0.00,,SKC,0.00,WeatherDisplay:10.37,2013-02-22 18:41:00,
2013-02-22 13:46:00,33.1,33.1,28.90,East,90,3.5,3.5,100,0.00,,SKC,0.00,WeatherDisplay:10.37,2013-02-22 18:46:00,
2013-02-22 13:51:00,33.3,33.3,28.90,East,90,4.6,4.6,100,0.00,,SKC,0.00,WeatherDisplay:10.37,2013-02-22 18:51:00,
2013-02-22 13:56:00,33.3,33.3,28.90,East,90,8.1,8.1,100,0.00,,SKC,0.00,WeatherDisplay:10.37,2013-02-22 18:56:00,
2013-02-22 14:01:00,33.3,33.3,28.90,SE,135,4.6,4.6,100,0.00,,SKC,0.00,WeatherDisplay:10.37,2013-02-22 19:01:00,
2013-02-22 14:06:00,33.3,33.3,28.90,SE,135,4.6,4.6,100,0.00,,SKC,0.00,WeatherDisplay:10.37,2013-02-22 19:06:00,
2013-02-22 14:11:00,33.6,33.6,28.89,East,90,3.5,3.5,100,0.00,,SKC,0.00,WeatherDisplay:10.37,2013-02-22 19:11:00,
2013-02-22 14:16:00,33.8,33.8,28.89,East,90,5.8,5.8,100,0.00,,SKC,0.00,WeatherDisplay:10.37,2013-02-22 19:16:00,
2013-02-22 14:21:00,34.2,34.2,28.89,East,90,3.5,3.5,100,0.00,,SKC,0.00,WeatherDisplay:10.37,2013-02-22 19:21:00,
2013-02-22 14:26:00,34.5,34.5,28.88,East,90,3.5,3.5,100,0.01,RA,SKC,0.01,WeatherDisplay:10.37,2013-02-22 19:26:00,
2013-02-22 14:31:00,34.7,34.7,28.88,East,90,3.5,4.5,100,0.01,RA,SKC,0.01,WeatherDisplay:10.37,2013-02-22 19:31:00,
2013-02-22 14:36:00,34.9,34.9,28.89,East,90,6.9,6.9,100,0.01,,SKC,0.01,WeatherDisplay:10.37,2013-02-22 19:36:00,
2013-02-22 14:41:00,35.1,35.1,28.88,South,180,3.5,3.5,100,0.01,CLR,SKC,0.01,WeatherDisplay:10.37,2013-02-22 19:41:00,
2013-02-22 14:46:00,35.1,35.1,28.88,East,90,8.1,8.1,100,0.01,CLR,SKC,0.01,WeatherDisplay:10.37,2013-02-22 19:46:00,
2013-02-22 14:51:00,35.1,35.1,28.88,East,90,3.5,3.5,100,0.01,CLR,SKC,0.01,WeatherDisplay:10.37,2013-02-22 19:51:00,
2013-02-22 14:56:00,35.2,35.2,28.88,SE,135,4.6,4.6,100,0.01,CLR,SKC,0.01,WeatherDisplay:10.37,2013-02-22 19:56:00,
2013-02-22 15:01:00,35.2,35.2,28.88,NE,45,3.5,3.5,100,0.01,CLR,SKC,0.01,WeatherDisplay:10.37,2013-02-22 20:01:00,
2013-02-22 15:06:00,35.2,35.2,28.88,NE,45,3.5,3.5,100,0.01,CLR,SKC,0.01,WeatherDisplay:10.37,2013-02-22 20:06:00,
2013-02-22 15:11:00,36.0,36.0,28.88,East,90,3.5,3.5,100,0.01,CLR,SKC,0.01,WeatherDisplay:10.37,2013-02-22 20:11:00,
2013-02-22 15:16:00,36.1,36.1,28.88,East,90,3.5,3.5,100,0.01,CLR,SKC,0.01,WeatherDisplay:10.37,2013-02-22 20:16:00,
2013-02-22 15:21:00,36.3,36.3,28.88,East,90,3.5,3.5,100,0.01,CLR,SKC,0.01,WeatherDisplay:10.37,2013-02-22 20:21:00,
2013-02-22 15:26:00,36.5,36.5,28.88,East,90,1.2,0.0,100,0.00,,SKC,0.01,WeatherDisplay:10.37,2013-02-22 20:26:00,
2013-02-22 15:31:00,36.5,36.5,28.88,East,90,3.5,3.5,100,0.00,,SKC,0.01,WeatherDisplay:10.37,2013-02-22 20:31:00,
2013-02-22 15:36:00,36.7,36.7,28.88,East,90,2.3,2.3,100,0.00,,SKC,0.01,WeatherDisplay:10.37,2013-02-22 20:36:00,
2013-02-22 15:41:00,36.9,36.9,28.88,East,90,1.2,1.2,100,0.00,,SKC,0.01,WeatherDisplay:10.37,2013-02-22 20:41:00,
2013-02-22 15:46:00,36.9,36.9,28.89,East,90,3.5,3.5,100,0.00,,SKC,0.01,WeatherDisplay:10.37,2013-02-22 20:46:00,
2013-02-22 15:51:00,36.9,36.9,28.89,East,90,3.5,3.5,100,0.00,,SKC,0.01,WeatherDisplay:10.37,2013-02-22 20:51:00,
2013-02-22 15:56:00,36.9,36.6,28.89,SE,135,5.8,5.8,99,0.00,,SKC,0.01,WeatherDisplay:10.37,2013-02-22 20:56:00,
2013-02-22 16:01:00,37.0,36.8,28.88,East,90,3.5,3.5,99,0.00,,SKC,0.01,WeatherDisplay:10.37,2013-02-22 21:01:00,
2013-02-22 16:06:00,37.4,36.9,28.88,East,90,3.5,3.5,98,0.00,,SKC,0.01,WeatherDisplay:10.37,2013-02-22 21:06:00,
2013-02-22 16:11:00,37.4,36.6,28.88,East,90,3.5,3.5,97,0.00,CLR,SKC,0.01,WeatherDisplay:10.37,2013-02-22 21:11:00,
2013-02-22 16:16:00,37.4,36.4,28.88,SE,135,4.6,4.6,96,0.00,CLR,SKC,0.01,WeatherDisplay:10.37,2013-02-22 21:16:00,
2013-02-22 16:21:00,37.2,36.2,28.88,East,90,3.5,3.5,96,0.00,CLR,SKC,0.01,WeatherDisplay:10.37,2013-02-22 21:21:00,
2013-02-22 16:26:00,37.2,36.2,28.88,East,90,3.5,3.5,96,0.00,CLR,SKC,0.01,WeatherDisplay:10.37,2013-02-22 21:26:00,
2013-02-22 16:31:00,37.2,36.2,28.87,NE,45,5.8,5.8,96,0.00,CLR,SKC,0.01,WeatherDisplay:10.37,2013-02-22 21:31:00,
2013-02-22 16:36:00,37.2,36.2,28.87,East,90,3.5,3.5,96,0.00,CLR,SKC,0.01,WeatherDisplay:10.37,2013-02-22 21:36:00,
2013-02-22 16:41:00,37.4,36.4,28.87,East,90,3.1,3.1,96,0.00,CLR,SKC,0.01,WeatherDisplay:10.37,2013-02-22 21:41:00,
2013-02-22 16:46:00,37.2,35.9,28.87,East,90,3.5,3.5,95,0.00,CLR,SKC,0.01,WeatherDisplay:10.37,2013-02-22 21:46:00,
2013-02-22 16:51:00,37.2,35.9,28.87,East,90,3.5,3.5,95,0.00,CLR,SKC,0.01,WeatherDisplay:10.37,2013-02-22 21:51:00,
2013-02-22 16:56:00,37.4,36.1,28.87,East,90,5.8,5.8,95,0.00,CLR,SKC,0.01,WeatherDisplay:10.37,2013-02-22 21:56:00,
2013-02-22 17:01:00,37.4,36.1,28.87,East,90,4.6,4.6,95,0.00,CLR,SKC,0.01,WeatherDisplay:10.37,2013-02-22 22:01:00,
2013-02-22 17:06:00,37.4,36.1,28.87,East,90,2.3,2.3,95,0.00,CLR,SKC,0.01,WeatherDisplay:10.37,2013-02-22 22:06:00,
2013-02-22 17:11:00,37.4,36.1,28.87,East,90,3.5,3.5,95,0.00,CLR,SKC,0.01,WeatherDisplay:10.37,2013-02-22 22:11:00,
2013-02-22 17:16:00,37.4,36.1,28.87,East,90,3.5,3.5,95,0.00,CLR,SKC,0.01,WeatherDisplay:10.37,2013-02-22 22:16:00,
2013-02-22 17:21:00,37.4,36.1,28.87,NE,45,5.8,5.8,95,0.00,CLR,SKC,0.01,WeatherDisplay:10.37,2013-02-22 22:21:00,
2013-02-22 17:26:00,37.4,36.1,28.87,East,90,3.5,3.5,95,0.00,CLR,SKC,0.01,WeatherDisplay:10.37,2013-02-22 22:26:00,
2013-02-22 17:31:00,37.4,36.1,28.87,SE,135,2.3,2.3,95,0.00,CLR,SKC,0.01,WeatherDisplay:10.37,2013-02-22 22:31:00,
2013-02-22 17:36:00,37.4,36.1,28.87,East,90,2.3,0.0,95,0.00,CLR,SKC,0.01,WeatherDisplay:10.37,2013-02-22 22:36:00,
2013-02-22 17:41:00,37.4,36.1,28.87,East,90,4.6,4.6,95,0.00,CLR,SKC,0.01,WeatherDisplay:10.37,2013-02-22 22:41:00,
2013-02-22 17:46:00,37.4,36.1,28.88,East,90,3.1,3.1,95,0.00,CLR,SKC,0.01,WeatherDisplay:10.37,2013-02-22 22:46:00,
2013-02-22 17:51:00,37.2,35.9,28.87,East,90,3.5,3.5,95,0.00,CLR,SKC,0.01,WeatherDisplay:10.37,2013-02-22 22:51:00,
2013-02-22 17:56:00,37.2,35.9,28.87,East,90,3.5,3.5,95,0.00,CLR,SKC,0.01,WeatherDisplay:10.37,2013-02-22 22:56:00,
2013-02-22 18:01:00,37.2,35.9,28.87,East,90,3.5,3.5,95,0.00,CLR,SKC,0.01,WeatherDisplay:10.37,2013-02-22 23:01:00,
2013-02-22 18:06:00,37.2,35.9,28.87,East,90,2.3,2.3,95,0.00,CLR,SKC,0.01,WeatherDisplay:10.37,2013-02-22 23:06:00,
2013-02-22 18:11:00,36.9,35.6,28.87,NE,45,2.3,2.3,95,0.00,CLR,SKC,0.01,WeatherDisplay:10.37,2013-02-22 23:11:00,
2013-02-22 18:16:00,36.9,35.6,28.87,NE,45,3.5,0.0,95,0.00,CLR,SKC,0.01,WeatherDisplay:10.37,2013-02-22 23:16:00,
2013-02-22 18:21:00,36.9,35.8,28.88,NE,45,1.2,0.0,96,0.00,CLR,SKC,0.01,WeatherDisplay:10.37,2013-02-22 23:21:00,
2013-02-22 18:26:00,36.9,35.8,28.87,East,90,3.5,3.5,96,0.00,CLR,SKC,0.01,WeatherDisplay:10.37,2013-02-22 23:26:00,
2013-02-22 18:31:00,36.9,35.8,28.87,East,90,2.3,0.0,96,0.00,CLR,SKC,0.01,WeatherDisplay:10.37,2013-02-22 23:31:00,
2013-02-22 18:36:00,36.7,35.6,28.87,East,90,3.5,3.5,96,0.00,CLR,SKC,0.01,WeatherDisplay:10.37,2013-02-22 23:36:00,
2013-02-22 18:41:00,36.5,35.2,28.87,East,90,2.3,2.3,95,0.00,CLR,SKC,0.01,WeatherDisplay:10.37,2013-02-22 23:41:00,
2013-02-22 18:46:00,36.3,35.0,28.87,East,90,3.5,3.5,95,0.00,CLR,SKC,0.01,WeatherDisplay:10.37,2013-02-22 23:46:00,
2013-02-22 18:51:00,36.1,35.1,28.87,NE,45,2.3,2.3,96,0.00,CLR,SKC,0.01,WeatherDisplay:10.37,2013-02-22 23:51:00,
2013-02-22 18:56:00,36.1,35.1,28.87,NE,45,4.6,4.6,96,0.00,CLR,SKC,0.01,WeatherDisplay:10.37,2013-02-22 23:56:00,
2013-02-22 19:01:00,36.1,35.1,28.87,NE,45,5.8,5.8,96,0.00,CLR,SKC,0.01,WeatherDisplay:10.37,2013-02-23 00:01:00,
2013-02-22 19:06:00,36.0,34.9,28.87,East,90,3.5,3.5,96,0.00,CLR,SKC,0.01,WeatherDisplay:10.37,2013-02-23 00:06:00,
2013-02-22 19:11:00,36.0,34.9,28.88,East,90,5.8,0.0,96,0.00,CLR,SKC,0.01,WeatherDisplay:10.37,2013-02-23 00:11:00,
2013-02-22 19:16:00,36.0,35.2,28.88,NE,45,3.5,3.5,97,0.00,CLR,SKC,0.01,WeatherDisplay:10.37,2013-02-23 00:16:00,
2013-02-22 19:21:00,36.0,34.9,28.87,NE,45,3.5,3.5,96,0.00,CLR,SKC,0.01,WeatherDisplay:10.37,2013-02-23 00:21:00,
2013-02-22 19:26:00,35.8,34.8,28.88,North,0,3.5,3.5,96,0.00,CLR,SKC,0.01,WeatherDisplay:10.37,2013-02-23 00:26:00,
2013-02-22 19:31:00,35.8,35.0,28.88,NE,45,5.8,5.8,97,0.00,CLR,SKC,0.01,WeatherDisplay:10.37,2013-02-23 00:31:00,
2013-02-22 19:36:00,35.6,34.6,28.88,NE,45,4.6,4.6,96,0.00,CLR,SKC,0.01,WeatherDisplay:10.37,2013-02-23 00:36:00,
2013-02-22 19:41:00,35.4,34.4,28.88,North,0,4.6,4.6,96,0.00,CLR,SKC,0.01,WeatherDisplay:10.37,2013-02-23 00:41:00,
2013-02-22 19:46:00,35.2,34.2,28.87,NE,45,4.6,4.6,96,0.00,CLR,SKC,0.01,WeatherDisplay:10.37,2013-02-23 00:46:00,
2013-02-22 19:51:00,35.1,34.0,28.88,North,0,4.6,4.6,96,0.00,CLR,SKC,0.01,WeatherDisplay:10.37,2013-02-23 00:51:00,
2013-02-22 19:56:00,35.1,34.3,28.88,NE,45,4.6,4.6,97,0.00,CLR,SKC,0.01,WeatherDisplay:10.37,2013-02-23 00:56:00,
2013-02-22 20:01:00,34.9,34.1,28.87,NE,45,4.6,4.6,97,0.00,CLR,SKC,0.01,WeatherDisplay:10.37,2013-02-23 01:01:00,
2013-02-22 20:06:00,34.9,34.1,28.88,NE,45,3.5,3.5,97,0.00,CLR,SKC,0.01,WeatherDisplay:10.37,2013-02-23 01:06:00,
2013-02-22 20:11:00,34.7,33.9,28.87,NE,45,6.9,6.9,97,0.00,CLR,SKC,0.01,WeatherDisplay:10.37,2013-02-23 01:11:00,
2013-02-22 20:16:00,34.7,33.9,28.88,NE,45,3.5,3.5,97,0.00,CLR,SKC,0.01,WeatherDisplay:10.37,2013-02-23 01:16:00,
2013-02-22 20:21:00,34.5,33.8,28.88,North,0,5.8,5.8,97,0.00,CLR,SKC,0.01,WeatherDisplay:10.37,2013-02-23 01:21:00,
2013-02-22 20:26:00,34.5,33.8,28.88,NE,45,3.5,3.5,97,0.00,CLR,SKC,0.01,WeatherDisplay:10.37,2013-02-23 01:26:00,
2013-02-22 20:31:00,34.5,33.8,28.88,NE,45,4.6,4.6,97,0.00,CLR,SKC,0.01,WeatherDisplay:10.37,2013-02-23 01:31:00,
2013-02-22 20:36:00,34.3,33.6,28.89,NE,45,3.5,3.5,97,0.00,CLR,SKC,0.01,WeatherDisplay:10.37,2013-02-23 01:36:00,
2013-02-22 20:41:00,34.3,33.6,28.88,NE,45,5.8,5.8,97,0.00,CLR,SKC,0.01,WeatherDisplay:10.37,2013-02-23 01:41:00,
2013-02-22 20:46:00,34.3,33.6,28.89,NE,45,6.9,6.9,97,0.00,CLR,SKC,0.01,WeatherDisplay:10.37,2013-02-23 01:46:00,
2013-02-22 20:51:00,34.3,33.6,28.89,NE,45,5.8,5.8,97,0.00,CLR,SKC,0.01,WeatherDisplay:10.37,2013-02-23 01:51:00,
2013-02-22 20:56:00,34.3,33.6,28.89,NE,45,4.6,4.6,97,0.00,CLR,SKC,0.01,WeatherDisplay:10.37,2013-02-23 01:56:00,
2013-02-22 21:01:00,34.3,33.6,28.89,NE,45,5.8,5.8,97,0.00,CLR,SKC,0.01,WeatherDisplay:10.37,2013-02-23 02:01:00,
2013-02-22 21:06:00,34.3,33.6,28.89,NE,45,4.6,4.6,97,0.00,CLR,SKC,0.01,WeatherDisplay:10.37,2013-02-23 02:06:00,
2013-02-22 21:11:00,34.3,33.3,28.88,NE,45,5.8,5.8,96,0.00,CLR,SKC,0.01,WeatherDisplay:10.37,2013-02-23 02:11:00,
2013-02-22 21:16:00,34.3,33.3,28.88,NE,45,5.8,5.8,96,0.00,CLR,SKC,0.01,WeatherDisplay:10.37,2013-02-23 02:16:00,
2013-02-22 21:21:00,34.3,33.3,28.89,NE,45,5.8,5.8,96,0.00,CLR,SKC,0.01,WeatherDisplay:10.37,2013-02-23 02:21:00,
2013-02-22 21:26:00,34.3,33.3,28.90,North,0,3.5,3.5,96,0.00,CLR,SKC,0.01,WeatherDisplay:10.37,2013-02-23 02:26:00,
2013-02-22 21:31:00,34.3,33.3,28.89,NE,45,4.6,4.6,96,0.00,CLR,SKC,0.01,WeatherDisplay:10.37,2013-02-23 02:31:00,
2013-02-22 21:36:00,34.3,33.3,28.89,North,0,5.8,5.8,96,0.00,CLR,SKC,0.01,WeatherDisplay:10.37,2013-02-23 02:36:00,
2013-02-22 21:41:00,34.3,33.3,28.89,NE,45,5.8,5.8,96,0.00,CLR,SKC,0.01,WeatherDisplay:10.37,2013-02-23 02:41:00,
2013-02-22 21:46:00,34.3,33.3,28.89,North,0,5.8,5.8,96,0.00,CLR,SKC,0.01,WeatherDisplay:10.37,2013-02-23 02:46:00,
2013-02-22 21:51:00,34.3,33.3,28.89,North,0,4.6,4.6,96,0.00,CLR,SKC,0.01,WeatherDisplay:10.37,2013-02-23 02:51:00,
2013-02-22 21:56:00,34.3,33.3,28.89,North,0,4.6,4.6,96,0.00,CLR,SKC,0.01,WeatherDisplay:10.37,2013-02-23 02:56:00,
2013-02-22 22:01:00,34.3,33.3,28.89,North,0,4.6,4.6,96,0.00,CLR,SKC,0.01,WeatherDisplay:10.37,2013-02-23 03:01:00,
2013-02-22 22:06:00,34.3,33.3,28.89,North,0,4.6,4.6,96,0.00,CLR,SKC,0.01,WeatherDisplay:10.37,2013-02-23 03:06:00,
2013-02-22 22:11:00,34.2,33.4,28.89,NE,45,5.8,5.8,97,0.00,CLR,SKC,0.01,WeatherDisplay:10.37,2013-02-23 03:11:00,
2013-02-22 22:16:00,34.2,33.4,28.89,North,0,5.8,5.8,97,0.00,CLR,SKC,0.01,WeatherDisplay:10.37,2013-02-23 03:16:00,
2013-02-22 22:21:00,34.2,33.4,28.89,North,0,8.1,8.1,97,0.00,CLR,SKC,0.01,WeatherDisplay:10.37,2013-02-23 03:21:00,
2013-02-22 22:26:00,34.2,33.4,28.89,NE,45,4.6,4.6,97,0.00,CLR,SKC,0.01,WeatherDisplay:10.37,2013-02-23 03:26:00,
2013-02-22 22:31:00,34.2,33.4,28.89,East,90,6.9,6.9,97,0.00,CLR,SKC,0.01,WeatherDisplay:10.37,2013-02-23 03:31:00,
2013-02-22 22:36:00,34.2,33.4,28.88,NE,45,8.1,8.1,97,0.00,CLR,SKC,0.01,WeatherDisplay:10.37,2013-02-23 03:36:00,
2013-02-22 22:41:00,34.2,33.4,28.88,NE,45,3.5,3.5,97,0.00,CLR,SKC,0.01,WeatherDisplay:10.37,2013-02-23 03:41:00,
2013-02-22 22:46:00,34.2,33.1,28.88,NE,45,5.8,5.8,96,0.00,CLR,SKC,0.01,WeatherDisplay:10.37,2013-02-23 03:46:00,
2013-02-22 22:51:00,34.2,33.1,28.88,East,90,3.5,3.5,96,0.00,CLR,SKC,0.01,WeatherDisplay:10.37,2013-02-23 03:51:00,
2013-02-22 22:56:00,34.2,33.1,28.88,East,90,4.6,4.6,96,0.00,CLR,SKC,0.01,WeatherDisplay:10.37,2013-02-23 03:56:00,
2013-02-22 23:01:00,34.2,33.1,28.88,East,90,3.5,3.5,96,0.00,CLR,SKC,0.01,WeatherDisplay:10.37,2013-02-23 04:01:00,
2013-02-22 23:06:00,34.2,33.1,28.87,East,90,3.5,3.5,96,0.00,CLR,SKC,0.01,WeatherDisplay:10.37,2013-02-23 04:06:00,
2013-02-22 23:11:00,34.0,33.0,28.88,NE,45,3.5,0.0,96,0.00,CLR,SKC,0.01,WeatherDisplay:10.37,2013-02-23 04:11:00,
2013-02-22 23:16:00,34.0,33.0,28.88,North,0,3.5,3.5,96,0.00,CLR,SKC,0.01,WeatherDisplay:10.37,2013-02-23 04:16:00,
2013-02-22 23:21:00,34.0,33.0,28.89,East,90,3.5,0.0,96,0.00,CLR,SKC,0.01,WeatherDisplay:10.37,2013-02-23 04:21:00,
2013-02-22 23:26:00,34.0,33.0,28.88,East,90,3.5,3.5,96,0.00,CLR,SKC,0.01,WeatherDisplay:10.37,2013-02-23 04:26:00,
2013-02-22 23:31:00,34.0,33.0,28.89,NE,45,2.3,0.0,96,0.00,CLR,SKC,0.01,WeatherDisplay:10.37,2013-02-23 04:31:00,
2013-02-22 23:36:00,34.0,32.7,28.88,East,90,3.5,3.5,95,0.00,CLR,SKC,0.01,WeatherDisplay:10.37,2013-02-23 04:36:00,
2013-02-22 23:41:00,34.0,33.0,28.88,NE,45,5.8,5.8,96,0.00,CLR,SKC,0.01,WeatherDisplay:10.37,2013-02-23 04:41:00,
2013-02-22 23:46:00,33.8,32.8,28.87,ENE,68,3.5,3.5,96,0.00,CLR,SKC,0.01,WeatherDisplay:10.37,2013-02-23 04:46:00,
2013-02-22 23:51:00,34.0,32.7,28.88,East,90,3.5,3.5,95,0.00,CLR,SKC,0.01,WeatherDisplay:10.37,2013-02-23 04:51:00,
2013-02-22 23:56:00,34.0,33.0,28.88,East,90,3.5,3.5,96,0.00,CLR,SKC,0.01,WeatherDisplay:10.37,2013-02-23 04:56:00,